EW2804 Weather Reports


Display with metric or nautical units.
time (UTC)temp
F
wind
direction
speed
MPH
gust
MPH
rain 1hr
in
rain 24hr
in
rain mn
in
humidity
%
barometer
mb
20190322120853 45 355 0.0 0.0 0.00 0.00 0.00 88 1020.6
20190322115832 45 355 0.0 0.0 0.00 0.00 0.00 87 1020.6
20190322114837 45 355 0.0 0.0 0.00 0.00 0.00 87 1020.5
20190322113827 45 355 0.0 0.0 0.00 0.00 0.00 87 1020.5
20190322112844 45 355 0.0 0.0 0.00 0.00 0.00 87 1020.5
20190322111816 44 355 0.0 0.0 0.00 0.00 0.00 86 1020.4
20190322110811 45 355 0.0 0.0 0.00 0.00 0.00 86 1020.4
20190322105826 45 355 0.0 0.0 0.00 0.00 0.00 86 1020.4
20190322104805 45 355 0.0 0.0 0.00 0.00 0.00 86 1020.4
20190322103814 45 355 0.0 0.0 0.00 0.00 0.00 85 1020.4
20190322102738 45 355 0.0 0.0 0.00 0.00 0.00 85 1020.4
20190322101745 46 355 0.0 0.0 0.00 0.00 0.00 85 1020.3
20190322100713 46 355 0.0 0.0 0.00 0.00 0.00 85 1020.2
20190322095645 46 355 0.0 0.0 0.00 0.00 0.00 85 1020.1
20190322094702 46 355 0.0 0.0 0.00 0.00 0.00 85 1020.1
20190322093700 46 355 0.0 0.0 0.00 0.00 0.00 85 1019.9
20190322092715 46 355 0.0 0.0 0.00 0.00 0.00 84 1019.9
20190322091729 46 355 0.0 0.0 0.00 0.00 0.00 84 1019.9
20190322090751 46 355 0.0 0.0 0.00 0.00 0.00 84 1020.0
20190322085745 46 355 0.0 0.0 0.00 0.00 0.00 83 1020.0
20190322084713 47 355 0.0 0.0 0.00 0.00 0.00 83 1020.1
20190322083650 47 355 0.0 0.0 0.00 0.00 0.00 82 1020.2
20190322082646 47 355 0.0 0.0 0.00 0.00 0.00 82 1020.1
20190322081648 47 355 0.0 0.0 0.00 0.00 0.00 81 1020.1
20190322080617 47 355 0.0 0.0 0.00 0.00 0.00 80 1020.1
20190322075552 48 355 0.0 0.0 0.00 0.00 0.00 79 1020.2
20190322074612 48 355 0.0 0.0 0.00 0.00 0.00 79 1020.2
20190322073621 48 355 0.0 0.0 0.00 0.00 0.00 78 1020.3
20190322072637 48 355 0.0 0.0 0.00 0.00 0.00 79 1020.3
20190322071618 49 355 0.0 0.0 0.00 0.00 0.00 78 1020.2
20190322070547 49 355 0.0 0.0 0.00 0.00 0.00 77 1020.3
20190322065527 49 355 0.0 0.0 0.00 0.00 0.00 77 1020.4
20190322064519 49 355 0.0 0.0 0.00 0.00 0.00 76 1020.3
20190322063506 50 355 0.0 0.0 0.00 0.00 0.00 76 1020.2
20190322062443 50 355 0.0 0.0 0.00 0.00 0.00 75 1020.3
20190322061411 50 355 0.0 0.0 0.00 0.00 0.00 75 1020.3
20190322060357 51 355 0.0 0.0 0.00 0.00 0.00 74 1020.4
20190322055417 51 355 0.0 0.0 0.00 0.00 0.00 75 1020.4
20190322054437 51 355 0.0 0.0 0.00 0.00 0.00 73 1020.5
20190322053439 52 355 0.0 0.0 0.00 0.00 0.00 74 1020.5
20190322052441 52 355 0.0 0.0 0.00 0.00 0.00 72 1020.3
20190322051420 52 355 0.0 0.0 0.00 0.00 0.00 71 1020.6
20190322050410 52 355 0.0 0.0 0.00 0.00 0.00 71 1020.5
20190322045416 52 355 0.0 0.0 0.00 0.00 0.00 71 1020.5
20190322044404 53 355 0.0 0.0 0.00 0.00 0.00 70 1020.6
20190322043340 53 355 0.0 0.0 0.00 0.00 0.00 70 1020.6
20190322042326 53 355 0.0 0.0 0.00 0.00 0.00 68 1020.7
20190322041300 53 355 0.0 0.0 0.00 0.00 0.00 67 1020.5
20190322040237 53 355 0.0 0.0 0.00 0.00 0.00 66 1020.5
20190322035205 54 355 0.0 0.0 0.00 0.00 0.00 65 1020.5
20190322034218 55 355 0.0 0.0 0.00 0.00 0.00 63 1020.4
20190322033152 55 355 0.0 0.0 0.00 0.00 0.00 61 1020.4
20190322032123 55 355 0.0 0.0 0.00 0.00 0.00 59 1020.1
20190322031130 56 355 0.0 0.0 0.00 0.00 0.00 63 1020.1
20190322030145 57 355 0.0 0.0 0.00 0.00 0.00 62 1019.9
20190322025144 57 355 0.0 0.0 0.00 0.00 0.00 60 1019.6
20190322024132 58 355 0.0 0.0 0.00 0.00 0.00 56 1019.5
20190322023128 59 355 0.0 0.0 0.00 0.00 0.00 59 1019.4
20190322022053 59 355 0.0 0.0 0.00 0.00 0.00 52 1019.4
20190322021043 60 355 0.0 0.0 0.00 0.00 0.00 50 1019.2
20190322020013 61 355 0.0 0.0 0.00 0.00 0.00 49 1018.9
20190322015024 62 355 0.0 0.0 0.00 0.00 0.00 45 1018.9
20190322014009 62 355 0.0 0.0 0.00 0.00 0.00 44 1018.9
20190322013006 64 355 0.0 0.0 0.00 0.00 0.00 41 1018.9
20190322011955 65 355 0.0 0.0 0.00 0.00 0.00 39 1018.9
20190322010928 66 355 0.0 0.0 0.00 0.00 0.00 36 1019.0
20190322005944 68 355 0.0 0.0 0.00 0.00 0.00 34 1019.0
20190322004907 69 355 0.0 0.0 0.00 0.00 0.00 32 1019.0
20190322003841 71 355 0.0 0.0 0.00 0.00 0.00 29 1019.0
20190322002901 72 355 0.0 0.0 0.00 0.00 0.00 26 1018.9
20190322001854 73 355 0.0 0.0 0.00 0.00 0.00 25 1018.8
20190322000913 74 355 0.0 0.0 0.00 0.00 0.00 25 1018.8
20190321235926 75 341 0.0 0.0 0.00 0.00 0.00 22 1018.8
20190321234913 75 320 0.0 0.0 0.00 0.00 0.00 24 1018.7
20190321233911 76 276 0.0 0.0 0.00 0.00 0.00 22 1018.7
20190321232845 76 32 0.0 0.0 0.00 0.00 0.00 22 1018.7
20190321231815 77 0 0.0 0.0 0.00 0.00 0.00 24 1018.7
20190321230741 77 343 0.0 0.0 0.00 0.00 0.00 23 1018.7
20190321225720 77 295 0.0 0.0 0.00 0.00 0.00 22 1018.8
20190321224734 76 265 0.0 0.0 0.00 0.00 0.00 22 1018.9
20190321223740 75 308 0.0 0.0 0.00 0.00 0.00 22 1019.0
20190321222713 76 5 0.0 0.0 0.00 0.00 0.00 20 1019.1
20190321221714 77 304 0.0 0.0 0.00 0.00 0.00 21 1019.2
20190321220729 77 9 0.0 2.0 0.00 0.00 0.00 24 1019.3
20190321215736 76 294 0.0 0.0 0.00 0.00 0.00 23 1019.3
20190321214757 76 266 0.0 0.0 0.00 0.00 0.00 22 1019.4
20190321213743 76 273 0.0 0.0 0.00 0.00 0.00 23 1019.5
20190321212729 76 238 0.0 0.0 0.00 0.00 0.00 23 1019.6
20190321211714 76 285 0.0 0.0 0.00 0.00 0.00 24 1019.6
20190321210641 76 119 0.0 0.0 0.00 0.00 0.00 23 1019.7
20190321205624 76 236 0.0 0.0 0.00 0.00 0.00 24 1019.8
20190321204609 76 192 0.0 0.0 0.00 0.00 0.00 22 1019.9
20190321203600 75 12 0.0 0.0 0.00 0.00 0.00 22 1020.0
20190321202545 76 355 0.0 0.0 0.00 0.00 0.00 26 1020.1
20190321201558 76 275 2.0 8.0 0.00 0.00 0.00 22 1020.3
20190321200547 76 310 0.0 0.0 0.00 0.00 0.00 26 1020.4
20190321195513 76 5 0.0 0.0 0.00 0.00 0.00 25 1020.7
20190321194532 76 298 0.0 0.0 0.00 0.00 0.00 24 1020.8
20190321193455 76 315 0.0 6.0 0.00 0.00 0.00 30 1020.9
20190321192456 75 326 0.0 0.0 0.00 0.00 0.00 28 1021.1
20190321191505 75 308 0.0 0.0 0.00 0.00 0.00 28 1021.2
20190321190434 74 265 0.0 0.0 0.00 0.00 0.00 30 1021.5
20190321185431 74 305 0.0 0.0 0.00 0.00 0.00 35 1021.6
20190321184414 73 280 0.0 0.0 0.00 0.00 0.00 33 1021.7
20190321183347 73 288 0.0 0.0 0.00 0.00 0.00 35 1021.9
20190321182337 73 0 0.0 0.0 0.00 0.00 0.00 33 1022.1
20190321181328 72 0 0.0 0.0 0.00 0.00 0.00 35 1022.2
20190321180305 71 325 0.0 4.0 0.00 0.00 0.00 39 1022.2
20190321175313 71 292 0.0 0.0 0.00 0.00 0.00 39 1022.3
20190321174321 71 12 0.0 0.0 0.00 0.00 0.00 40 1022.4
20190321173250 70 316 0.0 0.0 0.00 0.00 0.00 41 1022.5
20190321172215 70 252 0.0 11.0 0.00 0.00 0.00 41 1022.6
20190321171219 69 355 0.0 0.0 0.00 0.00 0.00 41 1022.7
20190321170215 69 0 0.0 9.0 0.00 0.00 0.00 40 1022.8
20190321165229 69 349 0.0 0.0 0.00 0.00 0.00 40 1022.8
20190321164228 68 275 0.0 0.0 0.00 0.00 0.00 45 1022.7
20190321163207 68 341 0.0 0.0 0.00 0.00 0.00 46 1022.7
20190321162211 67 259 2.0 0.0 0.00 0.00 0.00 49 1022.9
20190321161207 67 342 1.0 8.0 0.00 0.00 0.00 48 1022.9
20190321160144 66 46 0.0 6.0 0.00 0.00 0.00 50 1022.9
20190321155155 65 284 0.0 0.0 0.00 0.00 0.00 54 1023.0
20190321154203 64 355 0.0 7.0 0.00 0.00 0.00 54 1023.1
20190321153211 62 311 0.0 4.0 0.00 0.00 0.00 57 1023.0
20190321152139 61 246 0.0 7.0 0.00 0.00 0.00 56 1023.0
20190321151149 60 251 0.0 0.0 0.00 0.00 0.00 59 1023.0
20190321150148 59 260 0.0 0.0 0.00 0.00 0.00 61 1023.0
20190321145155 58 265 0.0 0.0 0.00 0.00 0.00 64 1023.1
20190321144135 56 314 0.0 2.0 0.00 0.00 0.00 67 1023.0
20190321143116 55 279 0.0 0.0 0.00 0.00 0.00 71 1023.0
20190321142117 54 248 0.0 0.0 0.00 0.00 0.00 71 1023.1
20190321141131 52 234 0.0 0.0 0.00 0.00 0.00 72 1022.9
20190321140112 51 222 0.0 0.0 0.00 0.00 0.00 74 1022.8
20190321135055 50 268 0.0 0.0 0.00 0.00 0.00 78 1022.8
20190321134058 48 234 0.0 0.0 0.00 0.00 0.00 83 1022.6
20190321133104 46 243 0.0 0.0 0.00 0.00 0.00 87 1022.6
20190321132124 44 250 0.0 0.0 0.00 0.00 0.00 88 1022.5
20190321131118 43 248 0.0 0.0 0.00 0.00 0.00 88 1022.4
20190321130117 42 248 0.0 0.0 0.00 0.00 0.00 87 1022.4
20190321125114 42 248 0.0 0.0 0.00 0.00 0.00 87 1022.2
20190321124109 43 248 0.0 0.0 0.00 0.00 0.00 87 1022.2
20190321123056 43 248 0.0 0.0 0.00 0.00 0.00 87 1022.2
20190321122110 43 248 0.0 0.0 0.00 0.00 0.00 86 1022.1
20190321121048 43 248 0.0 0.0 0.00 0.00 0.00 85 1022.0